Vertical_Velocity
-4 -2 -0 -2 -5 -4 -4 0 -3 -0 -2 -1 -2 2 -1 0 -2 -2 -2 0 -0 2 4 2 -0 2 -17 -1 1 -2 -2 -1 -1 -1 0 0 4 2 6 2 2 -1 0
2 -1 -2 -1 -6 -3 -0 -2 0 -1 -1 -3 0 -3 2 -2 4 1 -6 -0 -4 -1 0 5 2 3 -8 -17 -9 5 -2 -2 -2 -1 -1 1 -0 2 -0 -0 4 1 -1
-0 -3 -2 1 -1 -3 -5 -3 -5 1 -4 -5 1 1 -4 -2 -3 1 -0 -1 -5 -2 -3 -0 1 1 -1 2 -5 -11 2 -3 -2 -3 -1 -1 -1 -1 1 2 0 2 0
-1 0 3 -3 1 1 2 4 -2 -0 0 -0 0 1 -1 -1 -1 -3 -3 -3 -1 1 -1 -0 1 -1 3 2 2 -7 -5 -3 -2 -1 -3 -3 -3 -1 -1 -1 1 1 2
1 -1 -3 0 1 -1 -2 1 -1 -2 0 -2 2 -1 -2 -0 2 1 -1 -3 0 -3 1 0 1 -5 0 7 -4 -3 1 -4 -1 -2 1 -2 -6 -2 -2 -1 -2 0 -1
0 2 0 -0 -1 1 1 -0 1 2 -2 -4 -4 -3 1 -4 0 0 2 1 0 -1 -0 -1 0 -2 1 -2 1 -1 -2 2 -4 2 -1 3 -3 -2 0 -1 -1 -0 1
-2 -3 -1 2 3 2 0 -0 0 -1 -2 3 2 -5 0 -0 1 -5 -2 1 -1 -0 0 -0 1 0 -1 1 -0 -1 -1 -5 -1 -1 -0 2 2 -2 -3 -4 1 -1 -0
-1 1 1 -1 -2 -3 -0 0 -1 1 2 2 -2 2 0 0 -0 -0 -1 -4 0 -1 -1 -1 -0 1 1 1 -4 -0 -2 -1 -1 -2 1 -1 2 2 -2 -1 -2 2 -1
0 -1 -3 -2 -2 -3 -2 -1 -1 -2 -6 -3 -1 -5 -1 2 -3 -2 2 -4 -2 1 -3 -2 -1 -1 -1 -2 1 -1 -2 -2 2 -3 -4 -1 0 -1 4 2 -1 -2 -2
-2 -1 0 -0 -2 -2 -3 -4 1 2 -2 -5 -3 1 1 -1 -1 -3 -4 -1 -2 2 -4 -4 -1 -3 -1 -0 -3 2 -4 -4 -1 2 -2 -2 -1 -2 -1 2 3 -1 5
-2 -2 -3 -2 -2 -1 -1 -3 -4 -5 -11 -7 0 0 2 3 1 -1 -3 -3 -3 5 1 -4 1 -0 2 -0 -2 -2 -1 -2 -2 0 1 0 -4 -3 -4 -0 1 1 -0
-1 -1 -1 -1 -2 -2 -2 -2 -2 -2 3 4 4 1 3 -1 1 3 2 -3 -0 -3 -2 4 -2 -1 -0 2 1 -2 -0 -2 -2 -4 -1 -3 4 -0 -1 -0 -1 1 2
0 0 1 1 0 0 0 0 -0 1 -0 -2 -0 2 -5 -8 2 -1 -2 -1 -1 -1 1 -1 -1 -2 -2 1 1 -1 -2 -0 2 -5 -2 -4 -0 1 0 1 0 0 1
0 -1 0 0 0 -1 -1 -2 -3 -2 -4 -4 -5 -5 -4 -2 -1 3 5 2 1 2 -3 -3 -0 -3 -1 -0 2 0 -1 -0 -3 1 -2 -0 -6 -1 5 -0 -1 1 1
-0 -0 -1 -2 -2 -1 -2 -2 -1 -2 -2 -1 -2 -1 -0 0 -0 -3 -5 -5 -3 5 2 2 1 3 -1 -1 -1 1 1 0 -0 -1 -3 -1 -3 -6 0 2 4 2 3
1 1 1 0 -0 -1 -1 -0 -1 -1 -1 -0 0 1 3 4 1 0 -3 -7 -4 -2 -4 -3 -2 -4 1 -2 1 2 1 -0 -0 -4 -1 3 1 -2 -3 -2 3 3 7
2 2 1 1 1 1 0 -0 -1 -1 -1 -1 -0 -1 -2 -4 -1 -1 0 -1 6 7 -1 -0 -4 -3 0 -4 -1 2 -1 -1 -3 0 2 -0 0 2 -1 -4 2 -1 2
0 1 0 1 0 -0 1 -0 0 0 0 -1 -3 -4 -5 -4 -2 -6 -5 -4 -4 -4 -3 -4 0 5 -2 -1 0 -3 -1 4 1 2 -1 -2 4 3 0 0 -1 3 0
0 1 0 0 1 0 0 0 -0 -2 -3 -3 -4 -4 -4 -4 -5 -5 -4 -4 -4 -6 -5 -5 -3 -5 -8 -3 -3 1 -1 -3 5 5 2 1 -0 1 -1 1 2 -1 2
-1 0 -1 -1 1 -1 -1 -1 -0 0 1 -1 -2 -4 -2 -1 -3 -4 -6 -6 -8 -3 -4 -5 -5 -6 -5 -3 -6 -9 -7 5 3 -2 -5 -0 1 1 4 -0 3 1 3
1 -2 -1 0 -0 -0 2 1 0 -1 -3 -2 -4 -2 -2 -2 -1 1 2 4 4 -2 -3 -7 -10 -11 -6 -9 -13 -12 -1 -8 2 2 8 -9 4 -10 -10 -10 -12 -12 -7
2 0 0 0 0 -1 -0 -1 -2 -0 -3 -3 -2 1 -3 -5 -5 -6 -6 -8 -6 -3 -5 -3 -5 -6 -5 -3 -11 -7 -14 12 -9 -1 -2 5 -13 6 1 -6 4 2 -2
2 0 0 -1 -1 -2 -1 -1 -2 -4 -4 -5 -4 -3 -4 -3 -5 -5 -2 -3 -3 -4 -5 -4 -3 -3 -1 4 -1 -11 -8 -8 -14 -2 6 -0 -0 1 -7 4 -8 4 4
0 3 0 0 -0 -0 -2 -3 -2 -1 -2 -4 -5 -2 -3 -5 -4 -4 -4 -5 -6 -6 -5 -3 -3 -2 -3 -3 1 -3 -2 -2 -8 -15 6 7 -7 -2 -4 -5 12 -2 14
-2 1 0 -1 -2 -0 -0 -3 -3 -0 -3 -3 -4 -2 -4 -2 -3 -3 -3 -6 -9 -3 -5 -4 -1 -1 -4 -2 -2 1 -3 1 -0 -11 -17 2 8 -0 -2 2 -0 8 3
1 1 1 -1 -1 -0 -2 -3 -2 -5 -3 -1 -3 -5 -5 -3 -5 -4 -5 -8 -4 -3 -3 -1 -6 -8 -4 -5 -7 -5 -7 -6 -2 -8 -12 -2 -14 23 -1 -2 1 8 3
Height
3140 3141 3143 3145 3147 3147 3148 3149 3150 3150 3151 3152 3152 3154 3154 3154 3155 3156 3156 3157 3158 3158 3160 3160 3161 3161 3164 3164 3166 3166 3167 3167 3166 3165 3165 3165 3166 3166 3166 3168 3169 3170 3171
3137 3139 3142 3143 3144 3144 3145 3147 3149 3150 3150 3152 3150 3152 3153 3153 3152 3154 3155 3156 3156 3157 3158 3159 3160 3161 3163 3164 3166 3166 3166 3166 3167 3166 3165 3165 3165 3166 3166 3167 3169 3170 3170
3135 3137 3138 3141 3141 3141 3143 3144 3145 3147 3148 3149 3149 3150 3152 3152 3152 3152 3153 3154 3156 3156 3156 3158 3159 3159 3162 3163 3164 3165 3164 3166 3167 3167 3165 3165 3164 3165 3165 3167 3168 3170 3170
3133 3135 3135 3137 3139 3140 3141 3142 3143 3144 3145 3146 3146 3148 3149 3149 3150 3151 3152 3154 3154 3153 3155 3156 3157 3158 3158 3161 3162 3162 3165 3165 3166 3166 3165 3164 3163 3164 3164 3165 3167 3169 3170
3130 3132 3132 3133 3135 3136 3138 3139 3140 3141 3142 3142 3143 3144 3146 3146 3147 3148 3150 3152 3152 3153 3154 3154 3155 3157 3158 3158 3160 3162 3163 3163 3164 3165 3165 3164 3163 3163 3164 3164 3165 3166 3169
3127 3127 3129 3131 3133 3133 3136 3136 3137 3138 3139 3139 3141 3142 3142 3143 3144 3145 3146 3148 3149 3151 3152 3153 3154 3155 3156 3157 3158 3159 3160 3161 3163 3163 3164 3164 3163 3164 3164 3164 3164 3165 3167
3125 3126 3126 3127 3128 3130 3131 3132 3133 3134 3135 3136 3136 3138 3138 3138 3139 3142 3143 3143 3145 3146 3148 3149 3150 3152 3153 3154 3155 3157 3158 3159 3160 3161 3161 3162 3163 3162 3163 3163 3163 3164 3166
3122 3124 3124 3126 3127 3128 3128 3128 3129 3130 3131 3131 3131 3132 3133 3134 3134 3136 3137 3139 3140 3142 3143 3144 3146 3147 3148 3149 3151 3153 3155 3156 3158 3158 3159 3160 3161 3162 3161 3162 3163 3164 3165
3119 3120 3121 3122 3124 3124 3125 3126 3126 3126 3127 3127 3127 3128 3127 3128 3129 3130 3130 3133 3134 3135 3138 3139 3141 3142 3143 3144 3146 3149 3151 3152 3154 3155 3156 3157 3158 3159 3160 3160 3161 3163 3164
3115 3116 3118 3119 3120 3120 3119 3120 3120 3120 3121 3121 3121 3121 3121 3123 3123 3124 3126 3126 3127 3129 3130 3133 3135 3136 3138 3140 3142 3144 3145 3146 3149 3151 3152 3154 3154 3156 3156 3157 3158 3160 3161
3110 3111 3112 3113 3114 3114 3115 3115 3115 3116 3115 3115 3115 3115 3116 3116 3116 3117 3118 3120 3120 3121 3123 3125 3127 3128 3130 3132 3135 3137 3138 3141 3144 3146 3147 3147 3149 3151 3153 3154 3155 3156 3159
3103 3104 3105 3105 3105 3106 3106 3106 3107 3107 3107 3107 3107 3107 3108 3109 3110 3110 3110 3111 3113 3114 3115 3117 3118 3120 3122 3124 3126 3129 3131 3134 3137 3139 3142 3142 3144 3146 3149 3150 3151 3152 3154
3097 3097 3098 3098 3098 3098 3098 3099 3100 3100 3101 3101 3102 3102 3103 3102 3102 3102 3103 3103 3105 3107 3108 3108 3110 3111 3114 3115 3117 3119 3122 3124 3127 3131 3135 3136 3138 3140 3141 3144 3146 3148 3149
3090 3090 3090 3090 3090 3090 3090 3091 3092 3093 3093 3093 3093 3094 3094 3095 3095 3096 3096 3096 3097 3097 3098 3099 3101 3102 3103 3105 3108 3111 3113 3114 3117 3121 3125 3129 3130 3133 3135 3137 3140 3142 3144
3081 3081 3082 3083 3084 3084 3084 3084 3083 3083 3083 3084 3084 3085 3087 3088 3088 3088 3088 3089 3089 3090 3088 3088 3089 3091 3093 3094 3097 3099 3101 3104 3107 3110 3114 3119 3122 3124 3128 3130 3133 3135 3137
3073 3074 3074 3074 3074 3074 3075 3075 3074 3074 3074 3075 3076 3077 3078 3079 3079 3079 3080 3081 3081 3081 3080 3081 3080 3081 3082 3083 3085 3087 3090 3092 3094 3097 3102 3107 3111 3115 3118 3123 3125 3127 3130
3067 3067 3067 3067 3067 3067 3067 3067 3066 3066 3066 3066 3065 3065 3065 3066 3066 3066 3067 3067 3067 3069 3069 3068 3069 3071 3073 3073 3073 3075 3076 3079 3082 3084 3088 3093 3100 3104 3108 3112 3116 3118 3121
3060 3061 3060 3060 3060 3060 3060 3060 3059 3059 3059 3059 3058 3058 3057 3056 3055 3056 3055 3055 3054 3055 3056 3058 3058 3059 3058 3061 3062 3063 3065 3066 3068 3071 3075 3079 3084 3089 3095 3100 3105 3109 3112
3053 3054 3054 3053 3053 3053 3053 3053 3053 3052 3052 3051 3051 3050 3049 3048 3047 3047 3046 3045 3045 3044 3044 3045 3046 3046 3047 3047 3048 3050 3052 3052 3056 3057 3060 3064 3069 3074 3080 3086 3091 3096 3101
3044 3045 3046 3046 3047 3047 3047 3047 3047 3047 3046 3044 3041 3039 3038 3037 3035 3034 3033 3032 3030 3030 3030 3030 3031 3032 3032 3033 3034 3036 3038 3039 3041 3042 3046 3049 3052 3057 3062 3070 3077 3082 3087
3037 3037 3038 3038 3039 3039 3039 3039 3038 3037 3035 3033 3030 3028 3026 3024 3021 3020 3019 3018 3017 3016 3016 3016 3016 3016 3017 3017 3019 3021 3023 3025 3025 3027 3030 3033 3036 3039 3044 3049 3057 3063 3070
3028 3029 3030 3030 3030 3030 3030 3028 3028 3026 3024 3022 3019 3017 3012 3009 3006 3005 3003 3001 3001 3001 3000 2999 2998 2998 2999 2999 2997 2999 3002 3010 3010 3010 3012 3015 3018 3023 3027 3033 3040 3047 3053
3020 3021 3022 3022 3022 3021 3020 3019 3017 3015 3014 3011 3009 3006 3005 3002 2999 2995 2992 2990 2989 2988 2987 2987 2985 2984 2983 2986 2986 2983 2983 2985 2989 2994 2996 2996 2999 3006 3009 3015 3021 3029 3036
3012 3014 3014 3014 3014 3013 3012 3010 3008 3006 3004 3003 3001 2999 2996 2994 2991 2988 2985 2982 2980 2978 2976 2974 2975 2973 2971 2971 2975 2975 2973 2969 2967 2969 2980 2984 2982 2986 2990 2995 3003 3009 3018
3003 3006 3007 3007 3008 3007 3005 3002 3001 2999 2997 2995 2993 2991 2988 2985 2983 2982 2979 2976 2973 2969 2967 2966 2965 2965 2967 2965 2964 2964 2964 2961 2959 2956 2952 2963 2970 2973 2974 2979 2985 2992 2998
2998 2999 3001 3001 3000 2999 2997 2995 2993 2991 2989 2986 2984 2980 2977 2976 2974 2972 2969 2966 2964 2962 2961 2960 2959 2959 2957 2955 2955 2955 2955 2954 2953 2950 2946 2947 2947 2962 2959 2963 2968 2974 2978